AirNav   Everest Fuels
 
 1484 users online  

1TA7 Thompson Field Airport
Canton, Texas, USA

GOING TO CANTON?


FAA INFORMATION EFFECTIVE 10 SEPTEMBER 2020

Location

FAA Identifier: 1TA7
Lat/Long: 32-36-57.0000N 095-52-05.1750W
32-36.950000N 095-52.086250W
32.6158333,-95.8681042
(estimated)
Elevation: 518 ft. / 158 m (estimated)
Variation: 06E (1990)
From city: 4 miles N of CANTON, TX
Time zone: UTC -5 (UTC -6 during Standard Time)
Zip code: 75103

Airport Operations

Airport use: Private use. Permission required prior to landing
Activation date: 07/1995
Control tower: no
ARTCC: FORT WORTH CENTER
FSS: FORT WORTH FLIGHT SERVICE STATION
Attendance: MON-FRI 0800-1700
Wind indicator: yes
Segmented circle: no
Beacon: white-green (lighted land airport)
Operates sunset to sunrise.

Nearby radio navigation aids

VOR radial/distance  VOR name  Freq  Var
TYRr298/28.2TYLER VOR/DME114.2006E
CQYr028/31.3CEDAR CREEK VORTAC114.8006E
FZTr326/36.7FRANKSTON VOR/DME111.4006E
SLRr197/38.6SULPHUR SPRINGS VOR/DME109.0008E

 
NDB name  Hdg/Dist  Freq  Var  ID
TRAVIS108/21.126006EAVZ .- ...- --..
CROSSROADS360/33.421508ECSZ -.-. ... --..
MESQUITE106/35.324803EPQF .--. --.- ..-.
AMBASSADOR266/38.240407EABG .- -... --.

Airport Services

Fuel available: 100LL
Parking: hangars
Airframe service: MAJOR
Powerplant service: MAJOR

Runway Information

Runway 13/31

Dimensions: 2500 x 40 ft. / 762 x 12 m
Surface: asphalt
RUNWAY 13  RUNWAY 31
Latitude: 32-37.095833N32-36.804167N
Longitude: 095-52.258333W095-51.914167W
Elevation: 513.0 ft.511.0 ft.
Traffic pattern: leftright

Airport Ownership and Management from official FAA records

Ownership: Privately-owned
Owner: THOMPSON AIRFIELD, LLC
690 VZCR 3119
EDGEWOOD, TX 75117
Phone 903-896-4647
Manager: MARK THOMPSON
690 VZCR 3119
EDGEWOOD, TX 75117
Phone 903-896-4647

Airport Operational Statistics

Aircraft based on the field: 53
Single engine airplanes: 48
Multi engine airplanes: 3
Helicopters: 2
    

Additional Remarks

PPR TO LAND. AGRICULTURE ACFT OPR ON FLD.
FOR CD CTC FORT WORTH ARTCC AT 817-858-7584.

Instrument Procedures

There are no published instrument procedures at 1TA7.

Some nearby airports with instrument procedures:

3F9 - Mineola Airport-Wisener Field (18 nm E)
KJDD - Wood County Airport - Collins Field (20 nm E)
KTRL - Terrell Municipal Airport (21 nm W)
F44 - Athens Municipal Airport (27 nm S)
KTYR - Tyler Pounds Regional Airport (28 nm SE)
 
Loc | Ops | Rwys | IFR | FBO | Links
Com | Nav | Svcs | Stats | Notes

City of Fort Worth
 
Area around 1TA7 (Thompson Field Airport)
 
Road maps at: MapQuest Bing Google
 
Aerial photo
WARNING: Photo may not be current or correct
Aerial photo of 1TA7 (Thompson Field Airport)
Photo by Jon Hicks
Taken in August 2010
looking southeast.

Do you have a better or more recent aerial photo of Thompson Field Airport that you would like to share? If so, please send us your photo.

 
Sectional chart

 
Airport distance calculator
Flying to Thompson Field Airport? Find the distance to fly.

From to 1TA7

Sunrise and sunset
Times for 18-Sep-2020
 Local
(UTC-5)
 Zulu
(UTC)
Morning civil twilight06:4611:46
Sunrise07:1112:11
Sunset19:2400:24
Evening civil twilight19:4800:48

Current date and time
Zulu (UTC)  18-Sep-2020 15:27:10
Local (UTC-5)  18-Sep-2020 10:27:10
 
METAR
KJDD 
20nm E 
181515Z AUTO 04004KT 10SM SCT014 23/20 A3013 RMK AO2
KTRL 
21nm W 
181453Z AUTO 08008KT 10SM CLR 23/19 A3013 RMK AO2 SLP197 T02330194 52018
KF44 
27nm S 
181515Z AUTO 04008KT 10SM CLR 24/19 A3011 RMK AO2
KTYR 
28nm SE 
181453Z 06009G18KT 10SM FEW011 23/20 A3011 RMK AO2 SLP189 T02330200 53020
KGVT 
29nm N 
181450Z AUTO 08006KT 10SM CLR 25/20 A3014 RMK AO2
KF46 
34nm NW 
181515Z AUTO 09007KT 10SM CLR 24/19 A3014 RMK AO2 T02350193
KHQZ 
34nm W 
181450Z 36004KT 10SM CLR 23/19 A3013
KSLR 
35nm N 
181515Z AUTO 10009KT 7SM CLR 24/19 A3016 RMK AO2 T02420187
TAF
KTYR 
28nm SE 
181129Z 1812/1912 03003KT P6SM SCT250 TEMPO 1812/1816 BKN015 FM181600 04012G18KT P6SM SCT035 SCT250 FM190100 05005KT P6SM SKC
NOTAMs
Click for the latest NOTAMs
NOTAMs are issued by the DoD/FAA and will open in a separate window not controlled by AirNav.

 

 
 

Would you like to see your business listed on this page?

 If your business provides an interesting product or service to pilots, flight crews, aircraft, or users of the Thompson Field Airport, you should consider listing it here.  To start the listing process, click on the button below
 
Add a business
 

Other Pages about Thompson Field Airport

www.tailwindairpark.com
 
Update a link
 
Copyright © AirNav, LLC. All rights reserved. Privacy Policy  Contact